Change the Weather History Date:

Friday, September 7, 2012

  Actual Average Record
Temperature  
Mean Temperature 65 °F -  
Max Temperature 79 °F 64 °F - ()
Min Temperature 51 °F 51 °F - ()
Growing Degree Days 15 (Base 50)    
Moisture  
Dew Point 47 °F    
Average Humidity 59    
Maximum Humidity 94    
Minimum Humidity 19    
Precipitation  
Precipitation 0.00 in - - ()
Sea Level Pressure  
Sea Level Pressure 30.25 in    
Wind  
Wind Speed 7 mph ()    
Max Wind Speed 12 mph    
Max Gust Speed -    
Visibility 7.5 miles    
Events      
T = Trace of Precipitation, MM = Missing Value Source: Averaged Metar Reports

Daily Weather History Graph

Daily Weather History Graph

Search for Another Location

Airport or City:

Trip Planner

Search our weather history database for the weather conditions in past years. The results will help you decide how hot, cold, wet, or windy it might be!

Date:

Astronomy

Sep. 07, 2012 Rise Set
Actual Time 6:24 AM BST 7:33 PM BST
Civil Twilight 5:50 AM BST 8:07 PM BST
Nautical Twilight 5:08 AM BST 8:49 PM BST
Astronomical Twilight 4:23 AM BST 9:33 PM BST
Moon 10:26 PM BST (9/7) 1:54 PM BST (9/7)
Length of Visible Light 14h 17m
Length of Day
13h 09m
Waning Gibbous, 60% of the Moon is Illuminated
Sep 7
Waning Gibbous
Sep 8
Last Quarter
Sep 16
New
Sep 22
First Quarter
Sep 30
Full

Hourly Weather History & Observations

Time (BST) Temp. Dew Point Humidity Pressure Visibility Wind Dir Wind Speed Gust Speed Precip Events Conditions
12:20 AM 55.4 °F 51.8 °F 88% 30.30 in - SW 8.1 mph - N/A   Clear
12:50 AM 56 °F 52 °F 81% 30.30 in 8 mi SSW 8.1 mph - -  
12:50 AM 55.4 °F 51.8 °F 88% 30.30 in - SW 8.1 mph - N/A   Clear
1:20 AM 55.4 °F 51.8 °F 88% 30.30 in 6.2 mi SW 5.8 mph - N/A   Unknown
1:50 AM 53.6 °F 51.8 °F 94% 30.30 in 6.2 mi SW 8.1 mph - N/A   Unknown
2:20 AM 53.6 °F 50.0 °F 88% 30.27 in 6.2 mi SW 6.9 mph - N/A   Unknown
2:50 AM 53.6 °F 50.0 °F 88% 30.27 in - SW 5.8 mph - N/A   Clear
3:20 AM 53.6 °F 50.0 °F 88% 30.27 in - SW 5.8 mph - N/A   Clear
3:50 AM 53 °F 50 °F 86% 30.28 in 6 mi SW 6.9 mph - -   Light Haze
3:50 AM 51.8 °F 50.0 °F 94% 30.27 in - SW 4.6 mph - N/A   Clear
4:20 AM 51.8 °F 48.2 °F 88% 30.27 in - SSW 4.6 mph - N/A   Clear
4:50 AM 51.8 °F 48.2 °F 88% 30.27 in - SW 5.8 mph - N/A   Clear
5:20 AM 51.8 °F 50.0 °F 94% 30.27 in 5.6 mi WSW 4.6 mph - N/A   Unknown
5:50 AM 51.8 °F 48.2 °F 88% 30.27 in 5.0 mi West 6.9 mph - N/A   Unknown
6:20 AM 51.8 °F 48.2 °F 88% 30.27 in 5.0 mi WSW 8.1 mph - N/A   Unknown
6:50 AM 53 °F 51 °F 88% 30.27 in 4 mi West 6.9 mph - -   Light Haze
6:50 AM 53.6 °F 50.0 °F 88% 30.27 in 4.3 mi West 8.1 mph - N/A   Unknown
7:20 AM 53.6 °F 50.0 °F 88% 30.27 in 4.3 mi WSW 6.9 mph - N/A   Unknown
7:50 AM 53.6 °F 51.8 °F 94% 30.27 in 5.0 mi SSW 4.6 mph - N/A   Unknown
8:20 AM 55.4 °F 51.8 °F 88% 30.27 in - WSW 5.8 mph - N/A   Clear
8:50 AM 59.0 °F 51.8 °F 77% 30.27 in - SW 5.8 mph - N/A   Clear
9:20 AM 60.8 °F 51.8 °F 72% 30.27 in - West 9.2 mph - N/A   Clear
9:50 AM 63 °F 52 °F 58% 30.28 in 9 mi West 6.9 mph - -  
9:50 AM 62.6 °F 51.8 °F 68% 30.27 in - West 8.1 mph - N/A   Clear
10:20 AM 64.4 °F 51.8 °F 64% 30.27 in - West 5.8 mph - N/A   Clear
10:50 AM 66.2 °F 50.0 °F 56% 30.27 in - West 8.1 mph - N/A   Clear
11:20 AM 68.0 °F 50.0 °F 52% 30.27 in - West 8.1 mph - N/A   Clear
11:50 AM 69.8 °F 50.0 °F 49% 30.27 in - West 9.2 mph - N/A   Clear
12:20 PM 71.6 °F 46.4 °F 41% 30.27 in - West 9.2 mph - N/A   Clear
12:50 PM 75 °F 49 °F 29% 30.26 in 14 mi WSW 9.2 mph - -  
12:50 PM 75.2 °F 44.6 °F 34% 30.27 in - West 9.2 mph - N/A   Clear
1:20 PM 75.2 °F 44.6 °F 34% 30.24 in - West 11.5 mph - N/A   Clear
1:50 PM 77.0 °F 42.8 °F 29% 30.24 in - West 10.4 mph - N/A   Clear
2:20 PM 78.8 °F 44.6 °F 30% 30.24 in - West 10.4 mph - N/A   Clear
2:50 PM 78.8 °F 42.8 °F 28% 30.24 in - WNW 11.5 mph - N/A   Clear
3:20 PM 78.8 °F 37.4 °F 23% 30.24 in - West 10.4 mph - N/A   Clear
3:50 PM 79 °F 44 °F 19% 30.23 in 17 mi West 11.5 mph - -  
3:50 PM 78.8 °F 37.4 °F 23% 30.21 in - West 10.4 mph - N/A   Clear
4:20 PM 78.8 °F 39.2 °F 24% 30.21 in - WSW 10.4 mph - N/A   Clear
4:50 PM 78.8 °F 41.0 °F 26% 30.21 in - West 10.4 mph - N/A   Clear
5:20 PM 78.8 °F 42.8 °F 28% 30.21 in - WSW 11.5 mph - N/A   Clear
5:50 PM 77.0 °F 42.8 °F 29% 30.21 in - WSW 9.2 mph - N/A   Clear
6:20 PM 77.0 °F 42.8 °F 29% 30.21 in - West 9.2 mph - N/A   Clear
6:50 PM 75 °F 47 °F 26% 30.21 in 12 mi WSW 8.1 mph - -  
6:50 PM 75.2 °F 42.8 °F 31% 30.21 in - WSW 10.4 mph - N/A   Clear
7:20 PM 73.4 °F 41.0 °F 31% 30.21 in - WSW 9.2 mph - N/A   Clear
7:50 PM 69.8 °F 42.8 °F 38% 30.21 in - WSW 9.2 mph - N/A   Clear
8:20 PM 68.0 °F 42.8 °F 40% 30.21 in - West 9.2 mph - N/A   Clear
8:50 PM 66.2 °F 46.4 °F 49% 30.21 in - West 9.2 mph - N/A   Clear
9:20 PM 66.2 °F 46.4 °F 49% 30.21 in - West 6.9 mph - N/A   Clear
9:50 PM 66 °F 48 °F 42% 30.23 in 9 mi WNW 5.8 mph - -  
9:50 PM 64.4 °F 46.4 °F 52% 30.21 in - WNW 5.8 mph - N/A   Clear
10:20 PM 64.4 °F 46.4 °F 52% 30.21 in - WNW 4.6 mph - N/A   Clear
10:50 PM 64.4 °F 46.4 °F 52% 30.21 in - WNW 4.6 mph - N/A   Clear
11:50 PM 59.0 °F 48.2 °F 67% 30.21 in - West 3.5 mph - N/A   Clear